Weather History for MCMWTC BRIDGEPORT, CA, CA

Change the Weather History Date:

Saturday, June 7, 2014

  Actual Average (KTVL) Record (KTVL)
Temperature  
Mean Temperature 58 °F 53 °F  
Max Temperature 84 °F 70 °F 88 °F (2013)
Min Temperature 35 °F 36 °F 24 °F (1999)
Degree Days  
Heating Degree Days 6 12  
Month to date heating degree days 91  
Since 1 June heating degree days 91  
Since 1 July heating degree days 7513  
Cooling Degree Days 0 0  
Month to date cooling degree days 0  
Year to date cooling degree days 0  
Since 1 June cooling degree days 0  
Growing Degree Days 8 (Base 50)    
Moisture  
Dew Point 26 °F    
Average Humidity 35    
Maximum Humidity 70    
Minimum Humidity 10    
Precipitation  
Precipitation 0.00 in - 0.45 in (1972)
Month to date precipitation  
Year to date precipitation  
Sea Level Pressure  
Sea Level Pressure 29.86 in    
Wind  
Wind Speed 4 mph (NW)    
Max Wind Speed 16 mph    
Max Gust Speed 25 mph    
T = Trace of Precipitation, MM = Missing Value Source: NWS Daily Summary

Daily Weather History Graph

Daily Weather History Graph

Search for Another Location

Airport:

Trip Planner

Search our weather history database for the weather conditions in past years. The results will help you decide how hot, cold, wet, or windy it might be!

Date:

Astronomy

Jun. 07, 2014 Rise Set
Actual Time 5:34 AM PDT 8:19 PM PDT
Civil Twilight 5:03 AM PDT 8:51 PM PDT
Nautical Twilight 4:23 AM PDT 9:30 PM PDT
Astronomical Twilight 3:39 AM PDT 10:15 PM PDT
Moon 2:46 PM PDT (6/7) 1:54 AM PDT (6/7)
Length of Visible Light 15h 48m
Length of Day
14h 45m
Waxing Gibbous, 69% of the Moon is Illuminated
Jun 7
Waxing Gibbous
Jun 12
Full
Jun 19
Last Quarter
Jun 27
New
Jul 5
First Quarter

Hourly Weather History & Observations

Time (PDT) Temp. Windchill Dew Point Humidity Pressure Visibility Wind Dir Wind Speed Gust Speed Precip Events Conditions
12:52 AM 41.0 °F 39.0 °F 27.0 °F 57% 29.86 in - ENE 3.5 mph - N/A   Clear
1:52 AM 39.0 °F - 25.0 °F 57% 29.88 in - Calm Calm - N/A   Clear
2:52 AM 36.0 °F - 25.0 °F 64% 29.92 in - Calm Calm - N/A   Clear
3:52 AM 36.0 °F - 26.1 °F 67% 29.93 in - Calm Calm - N/A   Clear
4:52 AM 35.1 °F - 26.1 °F 70% 29.95 in - Calm Calm - N/A   Clear
5:52 AM 35.1 °F - 25.0 °F 67% 29.95 in - Calm Calm - N/A   Clear
6:52 AM 41.0 °F - 28.9 °F 62% 29.94 in - Calm Calm - N/A   Clear
7:52 AM 50.0 °F - 30.0 °F 46% 29.91 in - Calm Calm - N/A   Clear
8:52 AM 57.9 °F - 30.9 °F 36% 29.91 in - SE 3.5 mph - N/A   Clear
9:52 AM 66.9 °F - 28.0 °F 23% 29.87 in - Calm Calm - N/A   Clear
10:52 AM 72.0 °F - 25.0 °F 17% 29.84 in - Variable 4.6 mph - N/A   Clear
11:52 AM 78.1 °F - 24.1 °F 14% 29.80 in - Variable 3.5 mph - N/A   Clear
12:52 PM 82.0 °F - 23.0 °F 11% 29.77 in - North 8.1 mph - N/A   Clear
1:52 PM 81.0 °F - 19.9 °F 10% 29.79 in - North - - N/A   Partly Cloudy
2:52 PM 82.9 °F - 21.9 °F 11% 29.79 in - WSW 15.0 mph 25.3 mph N/A   Clear
3:52 PM 81.0 °F - 21.9 °F 11% 29.80 in - West 13.8 mph 24.2 mph N/A   Clear
4:52 PM 80.1 °F - 24.1 °F 13% 29.81 in - West 16.1 mph 24.2 mph N/A   Clear
5:52 PM 78.1 °F - 25.0 °F 14% 29.82 in - West 11.5 mph - N/A   Clear
6:52 PM 73.9 °F - 28.9 °F 19% 29.82 in - WNW 11.5 mph - N/A   Clear
7:52 PM 68.0 °F - 30.0 °F 24% 29.83 in - WNW 8.1 mph - N/A   Clear
8:52 PM 63.0 °F - 30.0 °F 29% 29.83 in - North 3.5 mph - N/A   Clear
9:52 PM 55.9 °F - 27.0 °F 33% 29.86 in - North 6.9 mph - N/A   Clear
10:52 PM 53.1 °F - 28.0 °F 38% 29.87 in - North 3.5 mph - N/A   Clear
11:52 PM 48.0 °F - 26.1 °F 42% 29.89 in - Calm Calm - N/A   Clear